Hourly Data Report for March 19, 2017

MIRAMICHI RCS
NEW BRUNSWICK

47°00'34.000" N
65°27'54.000" W
33.00 m
8100989
71744
ACQ

Download Data

Hourly Data (March 2017)
Hourly Data Report for March 19, 2017
TIME
LST
Temp Definition
°C
Dew Point Definition
°C
Rel Hum Definition
%
Precip. Amount Definition
mm

Wind Dir Definition
10's deg

Wind Spd Definition
km/h
Visibility Definition
km
Stn Press Definition
kPa
Hmdx Definition


Wind Chill Definition


Weather Definition


00:00 -8.6 -11.4 80 0.0   0   102.47     LegendNANA
01:00 -9.2 -11.6 83 0.0   0   102.47     LegendNANA
02:00 -10.0 -11.7 88 0.0   0   102.48     LegendNANA
03:00 -10.1 -11.6 89 0.0   0   102.47     LegendNANA
04:00 -11.7 -13.2 88 0.0 26 2   102.46   -13 LegendNANA
05:00 -12.3 -14.1 86 0.0 28 1   102.46   -13 LegendNANA
06:00 -12.8 -14.3 89 0.0   0   102.51     LegendNANA
07:00 -13.0 -15.1 84 0.0 26 2   102.55   -14 LegendNANA
08:00 -9.6 -12.6 79 0.0 26 3   102.55   -11 LegendNANA
09:00 -5.7 -10.2 71 0.0 21 3   102.59   -7 LegendNANA
10:00 0.3 -8.9 50 0.0 0 1   102.56     LegendNANA
11:00 2.3 -8.6 45 0.0   0   102.54     LegendNANA
12:00 5.0 -8.4 37 0.0 4 2   102.45     LegendNANA
13:00 5.1 -9.3 34 0.0 6 5   102.35     LegendNANA
14:00 5.0 -8.0 38 0.0 4 8   102.23     LegendNANA
15:00 4.3 -7.2 43 0.0 7 18   102.15     LegendNANA
16:00 3.7 -8.4 41 0.0 10 18   102.10     LegendNANA
17:00 2.7 -7.7 46 0.0 11 18   102.10     LegendNANA
18:00 1.0 -7.0 55 0.0 11 17   102.07     LegendNANA
19:00 -0.9 -7.8 60 0.0 8 14   102.03   -5 LegendNANA
20:00 -1.7 -8.6 59 0.0 4 7   102.06   -4 LegendNANA
21:00 -3.0 -8.8 64 0.0 5 8   102.03   -6 LegendNANA
22:00 -4.5 -7.6 79 0.0 5 7   102.00   -8 LegendNANA
23:00 -5.1 -7.4 83 0.0 36 6   101.95   -8 LegendNANA

Notes on Data Quality.

Legend

  • E = Estimated
  • M = Missing
  • NA = Not Available*
  • [empty] = Indicates an unobserved value
Date modified: